sat.trackr.live / text

‹ back to catalog

STARLINK-31999

NORAD 60101 · 2024-117L

PAYLOAD ACTIVE UNKNOWN

§ Identity

Operator
Country
US
Launch date
2024-06-23
Launch site
AFETR
Launch vehicle
Mass (kg)
RCS (m²)

Purposes: comms

External: N2YO · Heavens-Above · Gunter

§ Orbital elements

Epoch: 2026-09-21T06:18:47.847456Z

Period
93.85 min
Inclination
53.1568°
Eccentricity
0.0001394
Mean motion
15.34392220 rev/d
Perigee alt
461.8 km
Apogee alt
463.7 km
Semi-major
6,840.9 km
B*
8.2879e-7
RAAN
206.2970°
Arg perigee
85.9802°
Mean anomaly
274.1360°
Rev number
12,686

§ Raw data

STARLINK-319991 60101U 24117L   26264.26305379 -.00000348  00000+0  82879-6 0  99932 60101  53.1568 206.2970 0001394  85.9802 274.1360 15.34392220126860

JSON: /api/v1/satellites/60101 · /tle

For live sub-satellite position, see the globe view (requires WebGL).

§ Visibility from observer

Set your observer location to see the next 7 days of passes ≥ 10°. The values pass through the URL so the page stays shareable.

No JS? Fill the form by hand. The geolocation button needs JavaScript.